Lake Granby Weather Center

Moon Phase Calendar



Lake Granby Water Level
Online Cameras

 


      

Current Conditions in Granby
10/24/2020 8:00:25 PM

41°F
Feels Like 25
Clouds
Humidity
23%
Pressure
29.88"
Wind
17.2 mph (W)
Dew Point
9°F
UV Index
4/10 (Moderate)
Visibility
6 mi

Hourly Forecast

Date & Time Sat, Oct 24
8:00 PM
Sat, Oct 24
9:00 PM
Sat, Oct 24
10:00 PM
Sat, Oct 24
11:00 PM
Sun, Oct 25
12:00 AM
Sun, Oct 25
1:00 AM
Sun, Oct 25
2:00 AM
Sun, Oct 25
3:00 AM
Sun, Oct 25
4:00 AM
Sun, Oct 25
5:00 AM
Sun, Oct 25
6:00 AM
Sun, Oct 25
7:00 AM
Sun, Oct 25
8:00 AM
Sun, Oct 25
9:00 AM
Sun, Oct 25
10:00 AM
Sun, Oct 25
11:00 AM
Sun, Oct 25
12:00 PM
Sun, Oct 25
1:00 PM
Sun, Oct 25
2:00 PM
Sun, Oct 25
3:00 PM
Sun, Oct 25
4:00 PM
Sun, Oct 25
5:00 PM
Sun, Oct 25
6:00 PM
Sun, Oct 25
7:00 PM
Sun, Oct 25
8:00 PM
Sun, Oct 25
9:00 PM
Sun, Oct 25
10:00 PM
Sun, Oct 25
11:00 PM
Mon, Oct 26
12:00 AM
Mon, Oct 26
1:00 AM
Mon, Oct 26
2:00 AM
Mon, Oct 26
3:00 AM
Mon, Oct 26
4:00 AM
Mon, Oct 26
5:00 AM
Mon, Oct 26
6:00 AM
Mon, Oct 26
7:00 AM
Mon, Oct 26
8:00 AM
Mon, Oct 26
9:00 AM
Mon, Oct 26
10:00 AM
Mon, Oct 26
11:00 AM
Mon, Oct 26
12:00 PM
Mon, Oct 26
1:00 PM
Mon, Oct 26
2:00 PM
Mon, Oct 26
3:00 PM
Mon, Oct 26
4:00 PM
Mon, Oct 26
5:00 PM
Mon, Oct 26
6:00 PM
Mon, Oct 26
7:00 PM
Condition
Clouds

Clouds

Clouds

Clouds

Clouds

Clouds

Clouds

Clouds

Clouds

Clouds

Clouds

Clouds

Clouds

Clouds

Snow

Snow

Snow

Snow

Snow

Snow

Snow

Snow

Snow

Snow

Snow

Snow

Snow

Snow

Snow

Snow

Snow

Clouds

Clouds

Clouds

Clouds

Clouds

Clouds

Clouds

Clouds

Clouds

Clouds

Clouds

Clouds

Clouds

Clouds

Clouds

Clouds

Clouds
Temperature 41°F41°F39°F37°F36°F34°F34°F33°F33°F33°F33°F32°F30°F29°F23°F14°F9°F9°F10°F10°F8°F5°F3°F1°F-1°F-2°F-2°F-3°F-3°F-3°F-4°F-5°F-6°F-7°F-7°F-6°F-4°F2°F8°F12°F14°F15°F16°F16°F15°F13°F6°F1°F
Feels Like 29°F30°F29°F31°F30°F28°F27°F27°F27°F28°F28°F26°F23°F24°F15°F3°F-2°F-2°F-1°F-1°F-3°F-6°F-8°F-10°F-12°F-13°F-13°F-13°F-14°F-14°F-15°F-15°F-16°F-16°F-16°F-14°F-11°F-4°F1°F5°F7°F6°F7°F7°F7°F5°F-2°F-7°F
Cloudiness 90%88%85%86%88%89%94%96%97%98%98%100%100%100%100%100%100%100%100%100%100%100%100%100%100%100%100%100%100%100%100%100%100%100%100%100%100%99%94%89%91%100%100%100%100%100%100%90%
Visibility 6 mi6 mi6 mi6 mi6 mi6 mi6 mi6 mi6 mi6 mi5 mi6 mi4 mi2 mi0 mi0 mi0 mi0 mi0 mi0 mi0 mi0 mi0 mi0 mi0 mi0 mi0 mi0 mi0 mi0 mi1 mi1 mi1 mi1 mi0 mi1 mi3 mi6 mi6 mi6 mi2 mi1 mi1 mi2 mi3 mi1 mi4 mi4 mi
Precipitation 0%0%3%3%14%26%29%29%36%45%46%67%67%71%92%100%100%100%100%100%100%100%100%100%100%100%100%100%100%95%98%71%74%74%87%3%3%3%1%1%0%0%4%4%6%2%0%0%
Humidity 23%44%61%75%81%86%86%88%86%86%88%92%92%91%91%91%89%89%89%90%89%89%88%88%87%87%86%86%86%86%85%85%85%85%85%86%86%86%87%87%88%88%89%89%89%90%90%88%
Dew Point 9°F22°F28°F30°F31°F25°F24°F23°F23°F24°F24°F24°F22°F21°F15°F8°F1°F1°F2°F2°F0°F-2°F-5°F-7°F-9°F-10°F-10°F-11°F-11°F-12°F-13°F-14°F-15°F-15°F-16°F-14°F-12°F-6°F-1°F3°F5°F6°F7°F7°F7°F6°F-1°F-6°F
Pressure 29.88"29.88"29.91"29.94"29.97"30"30.03"30.06"30.06"30.09"30.12"30.15"30.18"30.21"30.21"30.21"30.21"30.21"30.21"30.21"30.24"30.3"30.36"30.42"30.47"30.5"30.53"30.56"30.56"30.56"30.59"30.62"30.62"30.65"30.68"30.71"30.71"30.68"30.62"30.59"30.53"30.5"30.45"30.42"30.45"30.45"30.53"30.62"
Wind Speed 10.7 mph10 mph10.7 mph4.6 mph3.7 mph4.4 mph4.2 mph3.6 mph3.7 mph3.5 mph2.9 mph2.9 mph4.2 mph2.7 mph4.1 mph9.3 mph9.4 mph8.3 mph7.8 mph7.7 mph8.4 mph7.5 mph8 mph7.5 mph7.9 mph7.8 mph8 mph7.3 mph8.3 mph7.1 mph6.8 mph6.1 mph5.3 mph4 mph3.1 mph2.1 mph0.6 mph0.4 mph1.8 mph2.7 mph3.4 mph5 mph4.9 mph5.7 mph4.4 mph4.5 mph3.2 mph1.7 mph
Wind
Direction
251°
WSW
244°
WSW
256°
WSW
253°
WSW
194°
SSW
173°
S
178°
S
184°
S
186°
S
231°
SW
219°
SW
183°
S
140°
SE
175°
S
54°
NE
64°
ENE
79°
E
85°
E
93°
E
82°
E
90°
E
92°
E
88°
E
86°
E
86°
E
87°
E
93°
E
94°
E
101°
E
89°
E
91°
E
86°
E
84°
E
84°
E
90°
E
95°
E
78°
ENE
250°
WSW
287°
WNW
288°
WNW
268°
W
279°
W
273°
W
281°
W
268°
W
279°
W
265°
W
284°
WNW

Daily Forecast

Date High Low Precip. Humidity
Today
Oct 24

Clear
51 °F
32 °F
1%
48%
Sunday
Oct 25

Snow
37 °F
-2 °F
100%
89%
Monday
Oct 26

Snow
16 °F
-7 °F
100%
88%
Tuesday
Oct 27

Clear
28 °F
-7 °F
0%
86%
Wednesday
Oct 28

Clouds
39 °F
10 °F
0%
78%
Thursday
Oct 29

Clouds
41 °F
22 °F
0%
77%
Friday
Oct 30

Clear
40 °F
23 °F
0%
72%
Saturday
Oct 31

Clear
43 °F
22 °F
0%
67%
Sunday
Nov 1

Clear
46 °F
27 °F
0%
57%
Monday
Nov 2

Clouds
45 °F
28 °F
0%
58%
Tuesday
Nov 3

Clear
46 °F
28 °F
0%
55%
Wednesday
Nov 4

Clouds
45 °F
28 °F
0%
56%
Thursday
Nov 5

Clear
48 °F
29 °F
0%
49%
Friday
Nov 6

Clear
49 °F
29 °F
0%
46%
Saturday
Nov 7

Clear
53 °F
32 °F
0%
40%
Sunday
Nov 8

Clear
51 °F
32 °F
0%
44%


Temperature 8-14 Day Outlook



Precipitation 8-14 Day Outlook




Quick Links
Lake Granby News
Lake Granby Photos
Lake Granby Videos




About Us
Contact Us
Site Map
Search Site
Advertise With Us
   
Granby.USLakes.info
THE LAKE GRANBY WEBSITE

Copyright 2020, Lakes Online
Privacy    |    Legal